Location: Unspecified
(45.6635°N, 122.4424°W)
Time: 05:53:20
(UTC+00:00)

ISS - Visible Passes

Search period start: 23 October 2017 00:00
Search period end: 02 November 2017 00:00
Orbit: 401 x 408 km, 51.6° (Epoch: 23 October)

Date Brightness Start Highest point End Pass type
(mag) Time Alt. Az. Time Alt. Az. Time Alt. Az.
29 Oct -0.9 13:28:23 10° S 13:30:19 15° SE 13:32:16 10° E visible
30 Oct -3.1 14:10:49 10° SW 14:14:00 55° SE 14:17:13 10° ENE visible
31 Oct -2.1 13:18:54 11° SSW 13:21:41 31° SE 13:24:36 10° ENE visible
01 Nov -1.3 12:29:19 18° SE 12:29:25 18° SE 12:31:43 10° E visible
01 Nov -3.9 14:02:19 10° WSW 14:05:33 75° NNW 14:08:49 10° ENE visible
